Flag for Greece Weather past 2 weeks in Preveza, Greece

Now
90 °F

Partly sunny.


Feels Like: 91 °F
Forecast: 80 / 96 °F
Wind: 9 mph from West

Location: Aktion Airport

Current Time: Aug 5, 2015 at 3:38:58 PM

Latest Report: Aug 5, 2015 at 2:50 PM


Visibility: N/A

Pressure: 29.83 "Hg

Humidity: 43%

Dew point: 64 °F

Location of PrevezaLocation

Historic Weather in Preveza — Graph

°F

Preveza temperature yesterday

Maximum temperature yesterday: 95 °F (at 2:20 PM)
Minimum temperature yesterday: 79 °F (at 4:20 PM)
Average temperature yesterday: 85 °F

Past Weeks' High & Low Weather Summary

 TemperatureHumidityPressure
High100 °F (Jul 22, 2:50 PM)100% (Jul 25, 5:50 PM)29.98 "Hg (Jul 25, 5:50 PM)
Low72 °F (Jul 24, 5:50 AM)17% (Jul 23, 1:20 PM)29.71 "Hg (Jul 27, 5:50 PM)
Average86 °F58%29.81 "Hg
* Reported Jul 21 2:20 PM — Aug 5 2:20 PM, Preveza, Weather by CustomWeather, © 2015

Note: Actual official high and low records may vary slightly from our data, if they occured in-between our weather recording intervals... More about our weather records

Advertising

Preveza weather history for previous 24 hours

 ConditionsComfort  
Time TempWeatherWind HumidityBarometerVisibility
2:20 PM
Wed, Aug 5
90 °FPartly sunny.9 mph46%29.83 "HgN/A
1:50 PM91 °FPartly sunny.6 mph44%29.83 "HgN/A
1:20 PM93 °FPartly sunny.5 mph26%29.83 "HgN/A
12:50 PM93 °FPartly sunny.5 mph30%29.86 "HgN/A
12:20 PM90 °FScattered clouds.6 mph38%29.86 "HgN/A
11:50 AM90 °FScattered clouds.6 mph38%29.86 "HgN/A
11:20 AM84 °FScattered clouds.8 mph51%29.86 "HgN/A
10:50 AM82 °FPartly sunny.8 mph62%29.86 "HgN/A
10:20 AM81 °FPartly sunny.8 mph66%29.86 "HgN/A
9:50 AM81 °FPartly sunny.6 mph66%29.86 "HgN/A
8:50 AM81 °FPartly sunny.5 mph58%29.83 "HgN/A
8:20 AM79 °FScattered clouds.5 mph61%29.83 "HgN/A
7:50 AM79 °FScattered clouds.5 mph65%29.83 "HgN/A
7:20 AM77 °FPassing clouds.6 mph65%29.83 "HgN/A
6:50 AM75 °FPassing clouds.No wind69%29.83 "HgN/A
6:20 AM75 °FPassing clouds.No wind74%29.83 "HgN/A
5:50 AM75 °FPassing clouds.No wind74%29.83 "HgN/A
4:50 AM75 °FPassing clouds.12 mph74%29.83 "HgN/A
3:50 AM77 °FPassing clouds.9 mph65%29.83 "HgN/A
2:50 AM77 °FPassing clouds.6 mph65%29.83 "HgN/A
1:50 AM77 °FPassing clouds.No wind69%29.83 "HgN/A
12:50 AM79 °FPassing clouds.7 mph65%29.86 "HgN/A
11:50 PM
Tue, Aug 4
79 °FPassing clouds.7 mph61%29.86 "HgN/A
10:50 PM79 °FPassing clouds.No wind58%29.86 "HgN/A
9:50 PM79 °FPartly cloudy.10 mph54%29.83 "HgN/A
8:50 PM81 °FBroken clouds.No wind51%29.86 "HgN/A
8:20 PM81 °FBroken clouds.8 mph51%29.86 "HgN/A
7:50 PM82 °FThunderstorms. Broken clouds.8 mph51%29.86 "HgN/A
7:20 PM84 °FThunderstorms. Broken clouds.10 mph48%29.86 "HgN/A
6:50 PM86 °FBroken clouds.13 mph43%29.86 "HgN/A
6:20 PM84 °FBroken clouds.16 mph48%29.83 "HgN/A
5:50 PM81 °FBroken clouds.15 mph58%29.86 "HgN/A
5:20 PM84 °FBroken clouds.14 mph48%29.83 "HgN/A
4:50 PM81 °FThunderstorms. Broken clouds.14 mph66%29.83 "HgN/A
4:20 PM79 °FThunderstorms. Scattered clouds.9 mph65%29.86 "HgN/A
3:50 PM82 °FThunderstorms. Broken clouds.13 mph51%29.86 "Hg5 mi
3:20 PM84 °FThunderstorms. Broken clouds.17 mph45%29.86 "HgN/A
Weather by CustomWeather, © 2015

See weather overviewHow to use our weather pages